Time,TemperatureF,DewpointF,PressureIn,WindDirection,WindDirectionDegrees,WindSpeedMPH,WindSpeedGustMPH,Humidity,HourlyPrecipIn,Conditions,Clouds,dailyrainin,SoftwareType,DateUTC
2013-01-27 00:08:00,25.6,18.0,28.58,East,82,0.0,0.0,73,0.00,,,0.00,weatherlink.com 1.10,2013-01-27 05:08:00,
2013-01-27 00:23:00,25.5,18.0,28.58,SSE,160,0.0,1.0,72,0.00,,,0.00,weatherlink.com 1.10,2013-01-27 05:23:00,
2013-01-27 00:38:00,25.2,19.0,28.58,SSE,148,0.0,1.0,76,0.00,,,0.00,weatherlink.com 1.10,2013-01-27 05:38:00,
2013-01-27 00:53:00,25.1,18.0,28.57,SE,146,0.0,1.0,75,0.00,,,0.00,weatherlink.com 1.10,2013-01-27 05:53:00,
2013-01-27 01:08:00,25.2,18.0,28.57,ENE,68,0.0,2.0,74,0.00,,,0.00,weatherlink.com 1.10,2013-01-27 06:08:00,
2013-01-27 01:23:00,25.2,18.0,28.59,ENE,71,0.0,1.0,74,0.00,,,0.00,weatherlink.com 1.10,2013-01-27 06:23:00,
2013-01-27 01:38:00,25.1,18.0,28.59,ENE,71,0.0,0.0,74,0.00,,,0.00,weatherlink.com 1.10,2013-01-27 06:38:00,
2013-01-27 01:53:00,25.1,18.0,28.59,ENE,77,0.0,1.0,73,0.00,,,0.00,weatherlink.com 1.10,2013-01-27 06:53:00,
2013-01-27 02:08:00,24.9,18.0,28.59,ENE,77,0.0,0.0,74,0.00,,,0.00,weatherlink.com 1.10,2013-01-27 07:08:00,
2013-01-27 02:23:00,24.7,18.0,28.60,ENE,76,0.0,0.0,76,0.00,,,0.00,weatherlink.com 1.10,2013-01-27 07:23:00,
2013-01-27 02:38:00,24.6,19.0,28.61,ENE,77,0.0,0.0,78,0.00,,,0.00,weatherlink.com 1.10,2013-01-27 07:38:00,
2013-01-27 02:53:00,24.5,19.0,28.60,ENE,77,0.0,0.0,78,0.00,,,0.00,weatherlink.com 1.10,2013-01-27 07:53:00,
2013-01-27 03:08:00,24.4,19.0,28.60,ENE,77,0.0,0.0,79,0.00,,,0.00,weatherlink.com 1.10,2013-01-27 08:08:00,
2013-01-27 03:23:00,24.2,19.0,28.59,ENE,77,0.0,0.0,79,0.00,,,0.00,weatherlink.com 1.10,2013-01-27 08:23:00,
2013-01-27 03:38:00,24.1,19.0,28.59,ENE,77,0.0,0.0,79,0.00,,,0.00,weatherlink.com 1.10,2013-01-27 08:38:00,
2013-01-27 03:53:00,23.9,19.0,28.59,ENE,77,0.0,0.0,80,0.00,,,0.00,weatherlink.com 1.10,2013-01-27 08:53:00,
2013-01-27 04:08:00,23.9,18.0,28.59,ENE,77,0.0,0.0,78,0.00,,,0.00,weatherlink.com 1.10,2013-01-27 09:08:00,
2013-01-27 04:23:00,23.8,18.0,28.59,ENE,77,0.0,0.0,78,0.00,,,0.00,weatherlink.com 1.10,2013-01-27 09:23:00,
2013-01-27 04:38:00,23.1,18.0,28.59,ENE,77,0.0,1.0,80,0.00,,,0.00,weatherlink.com 1.10,2013-01-27 09:38:00,
2013-01-27 04:53:00,21.8,17.0,28.60,ENE,77,0.0,1.0,82,0.00,,,0.00,weatherlink.com 1.10,2013-01-27 09:53:00,
2013-01-27 05:08:00,20.1,15.0,28.60,ENE,77,0.0,0.0,81,0.00,,,0.00,weatherlink.com 1.10,2013-01-27 10:08:00,
2013-01-27 05:23:00,18.8,15.0,28.60,South,190,0.0,0.0,84,0.00,,,0.00,weatherlink.com 1.10,2013-01-27 10:23:00,
2013-01-27 05:38:00,17.9,15.0,28.62,SE,129,0.0,0.0,87,0.00,,,0.00,weatherlink.com 1.10,2013-01-27 10:38:00,
2013-01-27 05:53:00,18.0,15.0,28.62,SE,136,0.0,1.0,87,0.00,,,0.00,weatherlink.com 1.10,2013-01-27 10:53:00,
2013-01-27 06:08:00,17.4,14.0,28.63,SSW,203,0.0,1.0,86,0.00,,,0.00,weatherlink.com 1.10,2013-01-27 11:08:00,
2013-01-27 06:24:00,16.7,14.0,28.63,SSW,203,0.0,0.0,87,0.00,,,0.00,weatherlink.com 1.10,2013-01-27 11:24:00,
2013-01-27 06:39:00,15.7,13.0,28.64,SSW,203,0.0,0.0,87,0.00,,,0.00,weatherlink.com 1.10,2013-01-27 11:39:00,
2013-01-27 06:54:00,14.5,12.0,28.65,SSW,203,0.0,0.0,88,0.00,,,0.00,weatherlink.com 1.10,2013-01-27 11:54:00,
2013-01-27 07:09:00,14.6,12.0,28.66,SSW,203,0.0,0.0,90,0.00,,,0.00,weatherlink.com 1.10,2013-01-27 12:09:00,
2013-01-27 07:24:00,13.9,11.0,28.66,SSW,203,0.0,0.0,89,0.00,,,0.00,weatherlink.com 1.10,2013-01-27 12:24:00,
2013-01-27 07:39:00,13.4,11.0,28.66,SSW,203,0.0,0.0,89,0.00,,,0.00,weatherlink.com 1.10,2013-01-27 12:39:00,
2013-01-27 07:54:00,12.9,11.0,28.66,SSW,203,0.0,0.0,90,0.00,,,0.00,weatherlink.com 1.10,2013-01-27 12:54:00,
2013-01-27 08:09:00,13.8,12.0,28.68,SSW,201,0.0,0.0,92,0.00,,,0.00,weatherlink.com 1.10,2013-01-27 13:09:00,
2013-01-27 08:24:00,15.3,13.0,28.68,ENE,68,0.0,3.0,92,0.00,,,0.00,weatherlink.com 1.10,2013-01-27 13:24:00,
2013-01-27 08:39:00,15.8,13.0,28.69,ENE,74,0.0,0.0,90,0.00,,,0.00,weatherlink.com 1.10,2013-01-27 13:39:00,
2013-01-27 08:54:00,16.1,14.0,28.69,ENE,74,0.0,0.0,90,0.00,,,0.00,weatherlink.com 1.10,2013-01-27 13:54:00,
2013-01-27 09:09:00,17.2,15.0,28.70,ENE,74,0.0,0.0,91,0.00,,,0.00,weatherlink.com 1.10,2013-01-27 14:09:00,
2013-01-27 09:24:00,19.5,17.0,28.69,SSW,198,0.0,1.0,89,0.00,,,0.00,weatherlink.com 1.10,2013-01-27 14:24:00,
2013-01-27 09:39:00,21.4,17.0,28.68,SSW,210,2.0,3.0,83,0.00,,,0.00,weatherlink.com 1.10,2013-01-27 14:39:00,
2013-01-27 09:54:00,22.8,18.0,28.68,SSW,207,0.0,2.0,81,0.00,,,0.00,weatherlink.com 1.10,2013-01-27 14:54:00,
2013-01-27 10:09:00,24.7,18.0,28.68,NE,51,0.0,1.0,77,0.00,,,0.00,weatherlink.com 1.10,2013-01-27 15:09:00,
2013-01-27 10:24:00,26.3,19.0,28.68,South,183,0.0,3.0,74,0.00,,,0.00,weatherlink.com 1.10,2013-01-27 15:24:00,
2013-01-27 10:39:00,29.1,20.0,28.68,NE,49,1.0,3.0,70,0.00,,,0.00,weatherlink.com 1.10,2013-01-27 15:39:00,
2013-01-27 10:54:00,31.4,20.0,28.68,SW,218,2.0,4.0,64,0.00,,,0.00,weatherlink.com 1.10,2013-01-27 15:54:00,
2013-01-27 11:09:00,34.0,21.0,28.67,ENE,61,1.0,3.0,59,0.00,,,0.00,weatherlink.com 1.10,2013-01-27 16:09:00,
2013-01-27 11:24:00,35.1,21.0,28.66,SSW,212,7.0,9.0,56,0.00,,,0.00,weatherlink.com 1.10,2013-01-27 16:24:00,
2013-01-27 11:39:00,35.5,21.0,28.66,SSW,200,2.0,8.0,56,0.00,,,0.00,weatherlink.com 1.10,2013-01-27 16:39:00,
2013-01-27 11:54:00,35.5,20.0,28.66,South,188,4.0,10.0,54,0.00,,,0.00,weatherlink.com 1.10,2013-01-27 16:54:00,
2013-01-27 12:09:00,36.3,21.0,28.64,SSW,207,2.0,8.0,54,0.00,,,0.00,weatherlink.com 1.10,2013-01-27 17:09:00,
2013-01-27 12:24:00,37.6,21.0,28.63,SW,231,5.0,10.0,51,0.00,,,0.00,weatherlink.com 1.10,2013-01-27 17:24:00,
2013-01-27 12:40:00,38.0,22.0,28.62,SW,235,0.0,8.0,52,0.00,,,0.00,weatherlink.com 1.10,2013-01-27 17:40:00,
2013-01-27 12:55:00,39.2,21.0,28.61,SSW,204,4.0,6.0,49,0.00,,,0.00,weatherlink.com 1.10,2013-01-27 17:55:00,
2013-01-27 13:10:00,39.7,21.0,28.61,SSW,210,1.0,8.0,48,0.00,,,0.00,weatherlink.com 1.10,2013-01-27 18:10:00,
2013-01-27 13:25:00,40.0,21.0,28.61,ENE,64,2.0,8.0,46,0.00,,,0.00,weatherlink.com 1.10,2013-01-27 18:25:00,
2013-01-27 13:40:00,40.8,21.0,28.60,SSW,198,6.0,7.0,45,0.00,,,0.00,weatherlink.com 1.10,2013-01-27 18:40:00,
2013-01-27 13:55:00,40.1,20.0,28.60,SSW,201,2.0,5.0,45,0.01,,,0.01,weatherlink.com 1.10,2013-01-27 18:55:00,
2013-01-27 14:10:00,39.1,20.0,28.59,SSW,212,0.0,6.0,46,0.01,,,0.01,weatherlink.com 1.10,2013-01-27 19:10:00,
2013-01-27 14:25:00,39.6,19.0,28.59,SSW,199,4.0,5.0,44,0.01,,,0.01,weatherlink.com 1.10,2013-01-27 19:25:00,
2013-01-27 14:40:00,40.4,20.0,28.59,SW,214,1.0,5.0,45,0.01,,,0.01,weatherlink.com 1.10,2013-01-27 19:40:00,
2013-01-27 14:55:00,41.3,21.0,28.59,SSW,200,1.0,2.0,44,0.00,,,0.01,weatherlink.com 1.10,2013-01-27 19:55:00,
2013-01-27 15:10:00,42.1,20.0,28.58,WSW,243,0.0,4.0,42,0.00,,,0.01,weatherlink.com 1.10,2013-01-27 20:10:00,
2013-01-27 15:25:00,41.6,20.0,28.58,WSW,242,0.0,1.0,43,0.00,,,0.01,weatherlink.com 1.10,2013-01-27 20:25:00,
2013-01-27 15:40:00,41.1,21.0,28.58,WSW,242,0.0,0.0,44,0.00,,,0.01,weatherlink.com 1.10,2013-01-27 20:40:00,
2013-01-27 15:55:00,41.2,21.0,28.58,South,190,0.0,2.0,44,0.00,,,0.01,weatherlink.com 1.10,2013-01-27 20:55:00,
2013-01-27 16:10:00,41.0,20.0,28.58,SW,217,0.0,3.0,44,0.00,,,0.01,weatherlink.com 1.10,2013-01-27 21:10:00,
2013-01-27 16:25:00,40.9,22.0,28.58,SW,217,0.0,0.0,47,0.00,,,0.01,weatherlink.com 1.10,2013-01-27 21:25:00,
2013-01-27 16:40:00,40.0,22.0,28.58,WSW,253,2.0,4.0,48,0.00,,,0.01,weatherlink.com 1.10,2013-01-27 21:40:00,
2013-01-27 16:55:00,38.5,21.0,28.59,SSW,207,1.0,4.0,50,0.00,,,0.01,weatherlink.com 1.10,2013-01-27 21:55:00,
2013-01-27 17:10:00,37.6,22.0,28.59,SSW,207,1.0,6.0,53,0.00,,,0.01,weatherlink.com 1.10,2013-01-27 22:10:00,
2013-01-27 17:25:00,37.0,22.0,28.59,SSW,202,1.0,4.0,54,0.00,,,0.01,weatherlink.com 1.10,2013-01-27 22:25:00,
2013-01-27 17:40:00,35.9,22.0,28.60,SSW,203,0.0,1.0,57,0.00,,,0.01,weatherlink.com 1.10,2013-01-27 22:40:00,
2013-01-27 17:55:00,34.6,22.0,28.59,SSW,203,0.0,0.0,60,0.00,,,0.01,weatherlink.com 1.10,2013-01-27 22:55:00,
2013-01-27 18:10:00,33.2,22.0,28.59,SSW,203,0.0,1.0,64,0.00,,,0.01,weatherlink.com 1.10,2013-01-27 23:10:00,
2013-01-27 18:40:00,32.0,22.0,28.59,SSW,203,0.0,1.0,67,0.00,,,0.01,weatherlink.com 1.10,2013-01-27 23:40:00,
2013-01-27 18:55:00,32.3,22.0,28.60,SSW,203,0.0,1.0,65,0.00,,,0.01,weatherlink.com 1.10,2013-01-27 23:55:00,
2013-01-27 19:25:00,31.6,23.0,28.59,South,191,0.0,0.0,70,0.00,,,0.01,weatherlink.com 1.10,2013-01-28 00:25:00,
2013-01-27 19:40:00,31.1,23.0,28.58,South,190,0.0,0.0,71,0.00,,,0.01,weatherlink.com 1.10,2013-01-28 00:40:00,
2013-01-27 19:55:00,29.9,23.0,28.58,South,190,0.0,0.0,74,0.00,,,0.01,weatherlink.com 1.10,2013-01-28 00:55:00,
2013-01-27 20:10:00,29.6,23.0,28.59,South,190,0.0,0.0,77,0.00,,,0.01,weatherlink.com 1.10,2013-01-28 01:10:00,
2013-01-27 20:40:00,30.5,24.0,28.57,ENE,74,1.0,2.0,77,0.00,,,0.00,weatherlink.com 1.10,2013-01-28 01:40:00,
2013-01-27 20:55:00,30.9,24.0,28.59,ENE,74,0.0,1.0,76,0.00,,,0.00,weatherlink.com 1.10,2013-01-28 01:55:00,
2013-01-27 21:10:00,31.1,24.0,28.58,ENE,74,0.0,1.0,76,0.00,,,0.00,weatherlink.com 1.10,2013-01-28 02:10:00,
2013-01-27 21:25:00,31.4,25.0,28.58,ENE,73,0.0,1.0,77,0.00,,,0.00,weatherlink.com 1.10,2013-01-28 02:25:00,
2013-01-27 21:40:00,31.4,25.0,28.58,ENE,63,0.0,1.0,76,0.00,,,0.00,weatherlink.com 1.10,2013-01-28 02:40:00,
2013-01-27 21:55:00,31.5,24.0,28.58,ENE,63,0.0,0.0,75,0.00,,,0.00,weatherlink.com 1.10,2013-01-28 02:55:00,
2013-01-27 22:10:00,31.4,25.0,28.57,ENE,64,0.0,0.0,77,0.00,,,0.00,weatherlink.com 1.10,2013-01-28 03:10:00,
2013-01-27 22:25:00,31.2,24.0,28.57,ENE,64,0.0,1.0,75,0.00,,,0.00,weatherlink.com 1.10,2013-01-28 03:25:00,
2013-01-27 22:40:00,31.2,24.0,28.57,ENE,64,0.0,0.0,76,0.00,,,0.00,weatherlink.com 1.10,2013-01-28 03:40:00,
2013-01-27 23:10:00,31.3,25.0,28.57,ENE,65,0.0,1.0,77,0.00,,,0.00,weatherlink.com 1.10,2013-01-28 04:10:00,
2013-01-27 23:25:00,31.5,24.0,28.57,ENE,65,0.0,1.0,75,0.00,,,0.00,weatherlink.com 1.10,2013-01-28 04:25:00,
2013-01-27 23:40:00,31.5,25.0,28.57,ENE,65,0.0,0.0,78,0.00,,,0.00,weatherlink.com 1.10,2013-01-28 04:40:00,
2013-01-27 23:55:00,31.5,25.0,28.57,ENE,65,0.0,0.0,76,0.00,,,0.00,weatherlink.com 1.10,2013-01-28 04:55:00,